TimeEST,TemperatureF,Dew PointF,Humidity,Sea Level PressureIn,VisibilityMPH,Wind Direction,Wind SpeedMPH,Gust SpeedMPH,PrecipitationIn,Events,Conditions,WindDirDegrees,DateUTC
12:56 AM,50.0,46.0,86,29.89,6.0,ENE,6.9,-,0.05,Rain,Light Rain,70,2013-02-13 05:56:00
1:56 AM,48.9,46.0,90,29.83,6.0,East,6.9,-,0.02,Rain,Light Rain,80,2013-02-13 06:56:00
2:09 AM,48.2,46.4,93,29.84,7.0,East,6.9,-,0.03,Rain,Light Rain,80,2013-02-13 07:09:00
2:37 AM,50.0,46.4,87,29.81,6.0,East,8.1,-,0.03,,Overcast,80,2013-02-13 07:37:00
2:56 AM,50.0,46.9,89,29.82,4.0,East,6.9,-,0.03,,Overcast,100,2013-02-13 07:56:00
3:56 AM,50.0,46.9,89,29.82,5.0,ENE,4.6,-,0.00,Rain,Light Rain,60,2013-02-13 08:56:00
4:56 AM,50.0,46.9,89,29.79,6.0,NE,6.9,-,0.01,,Overcast,50,2013-02-13 09:56:00
5:03 AM,50.0,46.4,87,29.78,7.0,ENE,6.9,-,N/A,,Overcast,60,2013-02-13 10:03:00
5:19 AM,50.0,46.4,87,29.79,7.0,NE,8.1,-,N/A,,Overcast,50,2013-02-13 10:19:00
5:56 AM,48.9,46.0,90,29.78,4.0,ENE,5.8,-,N/A,,Overcast,60,2013-02-13 10:56:00
6:11 AM,48.2,46.4,93,29.79,2.5,East,5.8,-,N/A,,Overcast,80,2013-02-13 11:11:00
6:21 AM,48.2,46.4,93,29.79,3.0,ENE,6.9,-,N/A,,Overcast,60,2013-02-13 11:21:00
6:29 AM,48.2,46.4,93,29.78,3.0,ENE,6.9,-,N/A,,Overcast,60,2013-02-13 11:29:00
6:56 AM,48.9,46.0,90,29.76,4.0,ENE,6.9,-,N/A,,Overcast,70,2013-02-13 11:56:00
7:09 AM,48.2,46.4,93,29.77,3.0,ENE,6.9,-,N/A,,Overcast,60,2013-02-13 12:09:00
7:42 AM,48.2,46.4,93,29.81,2.0,Calm,Calm,-,N/A,,Overcast,0,2013-02-13 12:42:00
7:54 AM,48.2,46.4,93,29.76,1.0,East,9.2,-,N/A,,Overcast,100,2013-02-13 12:54:00
7:56 AM,48.9,46.0,90,29.76,1.0,East,9.2,-,0.00,Rain,Light Rain,100,2013-02-13 12:56:00
8:56 AM,48.9,46.9,93,29.78,1.0,East,6.9,-,0.00,,Overcast,100,2013-02-13 13:56:00
9:44 AM,50.0,46.4,87,29.80,1.5,Calm,Calm,-,N/A,,Overcast,0,2013-02-13 14:44:00
9:56 AM,50.0,46.9,89,29.78,2.0,SE,3.5,-,N/A,,Overcast,140,2013-02-13 14:56:00
10:31 AM,51.8,48.2,88,29.75,1.5,SSE,3.5,-,N/A,,Overcast,150,2013-02-13 15:31:00
10:56 AM,51.1,48.9,92,29.76,1.5,South,5.8,-,N/A,,Overcast,180,2013-02-13 15:56:00
11:26 AM,51.8,50.0,94,29.74,1.0,SSE,3.5,-,N/A,,Overcast,160,2013-02-13 16:26:00
11:54 AM,53.6,51.8,94,29.73,2.5,Variable,3.5,-,N/A,,Overcast,0,2013-02-13 16:54:00
11:56 AM,53.1,51.1,93,29.73,1.8,Calm,Calm,-,N/A,,Overcast,0,2013-02-13 16:56:00
12:42 PM,55.4,51.8,88,29.74,3.0,WSW,5.8,-,N/A,,Overcast,250,2013-02-13 17:42:00
12:56 PM,55.0,53.1,93,29.71,7.0,WSW,6.9,-,N/A,,Overcast,250,2013-02-13 17:56:00
1:03 PM,55.4,53.6,94,29.74,6.0,WSW,10.4,-,N/A,,Overcast,250,2013-02-13 18:03:00
1:34 PM,59.0,53.6,82,29.71,10.0,WSW,19.6,25.3,0.00,,Mostly Cloudy,250,2013-02-13 18:34:00
1:56 PM,59.0,51.1,75,29.72,10.0,West,17.3,31.1,0.00,,Mostly Cloudy,260,2013-02-13 18:56:00
2:56 PM,57.0,48.9,74,29.72,10.0,West,24.2,31.1,0.00,Rain,Light Rain,260,2013-02-13 19:56:00
3:56 PM,54.0,48.9,83,29.73,9.0,WSW,9.2,-,0.02,Rain,Light Rain,250,2013-02-13 20:56:00
4:56 PM,54.0,46.9,77,29.76,10.0,WSW,10.4,-,0.00,,Overcast,250,2013-02-13 21:56:00
5:56 PM,53.1,48.0,83,29.76,10.0,SSW,4.6,-,N/A,,Mostly Cloudy,210,2013-02-13 22:56:00
6:56 PM,53.1,48.9,86,29.78,10.0,WSW,5.8,-,N/A,,Mostly Cloudy,240,2013-02-13 23:56:00
7:56 PM,53.1,48.9,86,29.79,10.0,WSW,8.1,-,N/A,,Overcast,250,2013-02-14 00:56:00
8:56 PM,52.0,41.0,66,29.82,10.0,West,20.7,27.6,N/A,,Scattered Clouds,270,2013-02-14 01:56:00
9:56 PM,51.1,39.9,66,29.85,10.0,West,13.8,21.9,N/A,,Mostly Cloudy,270,2013-02-14 02:56:00
10:56 PM,50.0,39.9,68,29.88,10.0,West,11.5,-,N/A,,Mostly Cloudy,270,2013-02-14 03:56:00
11:56 PM,48.0,39.9,74,29.90,10.0,West,5.8,-,N/A,,Scattered Clouds,260,2013-02-14 04:56:00